Radiation Dose at Monitoring Post of Fukushima Daini Nuclear Power Station
Date,Time,MP-1(microSv/h),MP-2(microSv/h),MP-3(microSv/h),MP-4(microSv/h),MP-5(microSv/h),MP-6(microSv/h),MP-7(microSv/h),Wind Direction,Wind Velocity(m/s),Rain
2016/09/25,00:00,0.377,0.228,0.397,0.363,0.358,0.185,0.156,north,1.0,No
2016/09/25,00:10,0.374,0.228,0.393,0.367,0.360,0.186,0.157,east-northeast,1.2,No
2016/09/25,00:20,0.377,0.230,0.398,0.362,0.357,0.186,0.157,east-northeast,0.5,No
2016/09/25,00:30,0.376,0.228,0.394,0.366,0.358,0.185,0.156,east,1.4,No
2016/09/25,00:40,0.376,0.230,0.397,0.363,0.355,0.186,0.156,-,CALM,No
2016/09/25,00:50,0.376,0.227,0.396,0.364,0.360,0.185,0.156,east-southeast,1.4,No
2016/09/25,01:00,0.375,0.229,0.396,0.365,0.357,0.187,0.158,southeast,1.9,No
2016/09/25,01:10,0.378,0.228,0.397,0.364,0.359,0.184,0.157,south-southeast,1.9,No
2016/09/25,01:20,0.374,0.230,0.394,0.366,0.357,0.186,0.158,-,CALM,No
2016/09/25,01:30,0.377,0.229,0.399,0.363,0.358,0.185,0.157,east-southeast,1.3,No
2016/09/25,01:40,0.376,0.228,0.394,0.366,0.357,0.185,0.157,east,0.8,No
2016/09/25,01:50,0.376,0.230,0.397,0.365,0.356,0.186,0.156,east-northeast,1.1,No
2016/09/25,02:00,0.376,0.229,0.396,0.364,0.358,0.185,0.157,east-southeast,0.7,No
2016/09/25,02:10,0.376,0.229,0.393,0.363,0.355,0.185,0.157,east-northeast,0.9,No
2016/09/25,02:20,0.377,0.230,0.397,0.364,0.359,0.184,0.157,northeast,1.1,No
2016/09/25,02:30,0.374,0.230,0.394,0.365,0.356,0.186,0.158,east,0.5,No
2016/09/25,02:40,0.377,0.229,0.398,0.365,0.359,0.185,0.157,northeast,1.0,No
2016/09/25,02:50,0.375,0.230,0.394,0.367,0.357,0.186,0.157,north-northeast,1.6,No
2016/09/25,03:00,0.377,0.229,0.398,0.362,0.359,0.187,0.157,north,1.0,No
2016/09/25,03:10,0.374,0.231,0.395,0.366,0.357,0.185,0.157,north-northwest,1.6,No
2016/09/25,03:20,0.375,0.229,0.394,0.364,0.358,0.186,0.157,north-northwest,1.4,No
2016/09/25,03:30,0.377,0.230,0.397,0.365,0.359,0.186,0.157,north,1.8,No
2016/09/25,03:40,0.376,0.229,0.396,0.365,0.355,0.187,0.157,north-northwest,1.6,No
2016/09/25,03:50,0.376,0.229,0.399,0.363,0.359,0.186,0.157,north,1.6,No
2016/09/25,04:00,0.374,0.229,0.394,0.365,0.356,0.186,0.156,-,CALM,No
2016/09/25,04:10,0.377,0.227,0.396,0.362,0.357,0.185,0.157,east-southeast,1.9,No
2016/09/25,04:20,0.375,0.230,0.397,0.365,0.357,0.185,0.157,east-northeast,1.3,No
2016/09/25,04:30,0.375,0.229,0.394,0.363,0.358,0.186,0.157,northeast,1.5,No
2016/09/25,04:40,0.377,0.229,0.398,0.366,0.357,0.185,0.158,north-northeast,2.4,No
2016/09/25,04:50,0.374,0.230,0.395,0.365,0.356,0.186,0.157,north-northeast,2.5,No
2016/09/25,05:00,0.378,0.229,0.399,0.364,0.359,0.186,0.158,north,2.6,No
2016/09/25,05:10,0.375,0.231,0.396,0.366,0.357,0.186,0.156,north-northeast,3.2,No
2016/09/25,05:20,0.377,0.229,0.397,0.365,0.361,0.187,0.158,north-northeast,3.6,No
2016/09/25,05:30,0.375,0.231,0.397,0.367,0.357,0.186,0.156,north,3.9,No
2016/09/25,05:40,0.375,0.229,0.394,0.364,0.359,0.186,0.158,north-northwest,4.2,No
2016/09/25,05:50,0.375,0.230,0.398,0.368,0.357,0.186,0.157,north,7.3,No
2016/09/25,06:00,0.374,0.229,0.393,0.365,0.357,0.187,0.158,north,5.3,No
2016/09/25,06:10,0.378,0.229,0.397,0.366,0.359,0.185,0.158,north,4.7,No
2016/09/25,06:20,0.375,0.229,0.397,0.367,0.356,0.187,0.158,north,4.8,No
2016/09/25,06:30,0.378,0.228,0.396,0.363,0.360,0.185,0.158,north,5.0,No
2016/09/25,06:40,0.376,0.230,0.398,0.366,0.356,0.185,0.157,north,4.9,No
2016/09/25,06:50,0.375,0.229,0.395,0.364,0.358,0.185,0.156,north,4.7,No
2016/09/25,07:00,0.377,0.230,0.396,0.363,0.358,0.185,0.156,north,3.8,No
2016/09/25,07:10,0.376,0.230,0.397,0.366,0.356,0.186,0.157,north,3.3,No
2016/09/25,07:20,0.377,0.228,0.395,0.361,0.358,0.185,0.157,north,2.8,No
2016/09/25,07:30,0.376,0.231,0.396,0.365,0.357,0.186,0.157,north,2.7,No
2016/09/25,07:40,0.375,0.229,0.394,0.364,0.355,0.185,0.156,north-northeast,2.5,No
2016/09/25,07:50,0.377,0.227,0.397,0.362,0.360,0.185,0.156,north,2.8,No
2016/09/25,08:00,0.375,0.229,0.398,0.363,0.356,0.186,0.156,north,2.1,No
2016/09/25,08:10,0.374,0.229,0.394,0.364,0.353,0.185,0.155,north-northeast,1.5,No
2016/09/25,08:20,0.376,0.228,0.396,0.362,0.360,0.185,0.155,north-northeast,2.2,No
2016/09/25,08:30,0.375,0.226,0.397,0.361,0.360,0.185,0.155,northeast,1.3,No
2016/09/25,08:40,0.372,0.227,0.394,0.364,0.355,0.186,0.156,east,0.7,No
2016/09/25,08:50,0.377,0.227,0.395,0.366,0.354,0.185,0.156,northeast,1.0,No
2016/09/25,09:00,0.376,0.227,0.395,0.364,0.358,0.185,0.156,east,1.3,No
2016/09/25,09:10,0.373,0.228,0.394,0.361,0.360,0.186,0.157,east-southeast,1.5,No
2016/09/25,09:20,0.371,0.227,0.395,0.366,0.356,0.187,0.156,east,1.8,No
2016/09/25,09:30,0.372,0.228,0.398,0.366,0.355,0.185,0.156,east,1.8,No
2016/09/25,09:40,0.372,0.228,0.396,0.366,0.354,0.184,0.156,east,1.5,No
2016/09/25,09:50,0.371,0.228,0.392,0.364,0.354,0.185,0.157,east,2.0,No
2016/09/25,10:00,0.373,0.227,0.397,0.363,0.354,0.184,0.155,east,2.1,No
2016/09/25,10:10,0.373,0.226,0.397,0.363,0.354,0.186,0.157,east,1.8,No
2016/09/25,10:20,0.374,0.228,0.395,0.364,0.355,0.186,0.157,southeast,2.2,No
2016/09/25,10:30,0.372,0.228,0.394,0.364,0.355,0.187,0.157,east-southeast,2.5,No
2016/09/25,10:40,0.372,0.227,0.398,0.364,0.356,0.186,0.157,east-southeast,1.9,No
2016/09/25,10:50,0.374,0.229,0.397,0.363,0.356,0.187,0.157,east-southeast,1.6,No
2016/09/25,11:00,0.373,0.227,0.396,0.362,0.357,0.187,0.156,east,2.1,No
2016/09/25,11:10,0.372,0.227,0.392,0.362,0.356,0.188,0.156,east,1.5,No
2016/09/25,11:20,0.376,0.227,0.392,0.362,0.355,0.187,0.156,east,1.6,No
2016/09/25,11:30,0.379,0.229,0.392,0.362,0.356,0.186,0.157,east,1.6,No
2016/09/25,11:40,0.377,0.230,0.397,0.362,0.357,0.186,0.157,east,1.9,No
2016/09/25,11:50,0.374,0.230,0.400,0.365,0.354,0.187,0.156,east,1.6,No
2016/09/25,12:00,0.375,0.229,0.398,0.368,0.359,0.186,0.155,east,1.6,No
2016/09/25,12:10,0.374,0.228,0.395,0.367,0.362,0.187,0.156,southeast,1.6,No
2016/09/25,12:20,0.379,0.229,0.394,0.367,0.359,0.186,0.157,east,1.5,No
2016/09/25,12:30,0.380,0.228,0.394,0.366,0.359,0.186,0.157,east-southeast,1.4,No
2016/09/25,12:40,0.376,0.227,0.394,0.364,0.359,0.187,0.156,east-northeast,2.2,No
2016/09/25,12:50,0.374,0.228,0.394,0.364,0.358,0.187,0.157,east-southeast,1.8,No
2016/09/25,13:00,0.374,0.229,0.395,0.364,0.359,0.186,0.157,east,1.6,No
2016/09/25,13:10,0.373,0.227,0.394,0.364,0.357,0.188,0.156,east,1.2,No
2016/09/25,13:20,0.374,0.228,0.394,0.363,0.356,0.189,0.156,east-southeast,1.6,No
2016/09/25,13:30,0.380,0.230,0.399,0.366,0.355,0.188,0.157,southeast,1.4,No
2016/09/25,13:40,0.378,0.231,0.400,0.370,0.355,0.187,0.159,south-southeast,1.4,No
2016/09/25,13:50,0.378,0.230,0.399,0.368,0.355,0.188,0.158,south-southeast,1.3,No
2016/09/25,14:00,0.373,0.228,0.395,0.365,0.354,0.186,0.157,east-southeast,1.3,No
2016/09/25,14:10,0.377,0.226,0.394,0.364,0.356,0.187,0.158,south,1.4,No
2016/09/25,14:20,0.379,0.228,0.393,0.363,0.359,0.188,0.157,south-southeast,1.2,No
2016/09/25,14:30,0.377,0.226,0.399,0.368,0.361,0.188,0.157,southeast,1.7,No
2016/09/25,14:40,0.374,0.230,0.400,0.369,0.361,0.187,0.158,southeast,1.1,No
2016/09/25,14:50,0.373,0.231,0.399,0.365,0.359,0.187,0.158,south-southeast,2.7,No
2016/09/25,15:00,0.377,0.229,0.395,0.366,0.356,0.187,0.157,south,2.9,No
2016/09/25,15:10,0.378,0.228,0.396,0.368,0.356,0.187,0.158,south,2.9,No
2016/09/25,15:20,0.376,0.229,0.400,0.369,0.357,0.188,0.158,south,2.7,No
2016/09/25,15:30,0.374,0.230,0.400,0.367,0.361,0.188,0.159,south,2.5,No
2016/09/25,15:40,0.376,0.230,0.396,0.364,0.360,0.187,0.158,south,2.5,No
2016/09/25,15:50,0.379,0.229,0.396,0.369,0.358,0.187,0.157,south,3.1,No
2016/09/25,16:00,0.377,0.228,0.400,0.368,0.355,0.187,0.158,south,3.1,No
2016/09/25,16:10,0.374,0.231,0.399,0.367,0.355,0.187,0.159,south,3.6,No
2016/09/25,16:20,0.378,0.230,0.396,0.365,0.362,0.188,0.158,south,2.8,No
2016/09/25,16:30,0.379,0.228,0.396,0.370,0.360,0.186,0.159,south-southeast,1.5,No
2016/09/25,16:40,0.375,0.230,0.401,0.367,0.357,0.187,0.159,south,2.8,No
2016/09/25,16:50,0.375,0.230,0.397,0.365,0.357,0.188,0.157,south,4.3,No
2016/09/25,17:00,0.380,0.229,0.396,0.369,0.361,0.187,0.157,south,4.3,No
2016/09/25,17:10,0.376,0.231,0.400,0.368,0.358,0.186,0.158,south,4.5,No
2016/09/25,17:20,0.374,0.230,0.400,0.364,0.356,0.187,0.158,south,5.4,No
2016/09/25,17:30,0.378,0.228,0.396,0.369,0.360,0.187,0.158,south,6.3,No
2016/09/25,17:40,0.377,0.231,0.401,0.367,0.360,0.186,0.159,south,5.6,No
2016/09/25,17:50,0.374,0.231,0.400,0.364,0.356,0.188,0.157,south-southwest,4.1,No
2016/09/25,18:00,0.378,0.228,0.395,0.368,0.360,0.187,0.158,south-southwest,1.6,No
2016/09/25,18:10,0.378,0.231,0.400,0.367,0.360,0.186,0.159,south-southwest,3.6,No
2016/09/25,18:20,0.375,0.230,0.401,0.365,0.357,0.187,0.158,south-southwest,4.2,No
2016/09/25,18:30,0.379,0.229,0.395,0.369,0.361,0.187,0.158,south-southwest,3.9,No
2016/09/25,18:40,0.375,0.231,0.400,0.368,0.361,0.187,0.160,south-southwest,4.0,No
2016/09/25,18:50,0.375,0.230,0.399,0.366,0.358,0.188,0.158,south-southwest,4.2,No
2016/09/25,19:00,0.379,0.231,0.396,0.368,0.361,0.188,0.159,south-southwest,3.6,No
2016/09/25,19:10,0.376,0.232,0.402,0.366,0.359,0.187,0.159,south-southwest,3.0,No
2016/09/25,19:20,0.377,0.229,0.399,0.367,0.359,0.187,0.158,south-southwest,3.0,No
2016/09/25,19:30,0.377,0.231,0.399,0.369,0.360,0.186,0.159,south-southwest,2.6,No
2016/09/25,19:40,0.373,0.230,0.401,0.367,0.358,0.189,0.158,south-southwest,4.2,No
2016/09/25,19:50,0.378,0.229,0.398,0.368,0.362,0.187,0.159,south,4.5,No
2016/09/25,20:00,0.377,0.232,0.399,0.368,0.362,0.188,0.160,south-southwest,3.3,No
2016/09/25,20:10,0.375,0.229,0.401,0.366,0.358,0.189,0.159,south-southwest,2.5,No
2016/09/25,20:20,0.378,0.231,0.396,0.371,0.362,0.188,0.160,south-southwest,2.9,No
2016/09/25,20:30,0.377,0.230,0.402,0.368,0.360,0.189,0.160,south-southwest,3.1,No
2016/09/25,20:40,0.377,0.229,0.402,0.366,0.359,0.187,0.159,south-southwest,3.5,No
2016/09/25,20:50,0.380,0.232,0.397,0.370,0.361,0.188,0.160,south-southwest,4.2,No
2016/09/25,21:00,0.377,0.231,0.401,0.366,0.358,0.189,0.158,south-southwest,3.5,No
2016/09/25,21:10,0.377,0.232,0.400,0.371,0.361,0.189,0.160,south-southwest,3.0,No
2016/09/25,21:20,0.378,0.232,0.401,0.369,0.360,0.188,0.159,south-southwest,3.6,No
2016/09/25,21:30,0.375,0.229,0.402,0.366,0.357,0.188,0.159,south-southwest,3.9,No
2016/09/25,21:40,0.380,0.231,0.398,0.371,0.363,0.189,0.160,south-southwest,3.1,No
2016/09/25,21:50,0.377,0.230,0.400,0.367,0.359,0.189,0.159,southwest,2.5,No
2016/09/25,22:00,0.377,0.231,0.402,0.368,0.360,0.188,0.160,south-southwest,1.7,No
2016/09/25,22:10,0.381,0.230,0.398,0.369,0.360,0.189,0.160,south-southwest,2.7,No
2016/09/25,22:20,0.377,0.229,0.400,0.366,0.357,0.188,0.159,south-southwest,3.1,No
2016/09/25,22:30,0.379,0.231,0.399,0.371,0.360,0.188,0.161,south-southwest,2.7,No
2016/09/25,22:40,0.377,0.231,0.400,0.368,0.359,0.187,0.158,southwest,2.7,No
2016/09/25,22:50,0.377,0.231,0.401,0.367,0.361,0.188,0.160,southwest,1.6,No
2016/09/25,23:00,0.379,0.233,0.400,0.370,0.360,0.189,0.161,southwest,0.7,No
2016/09/25,23:10,0.378,0.229,0.400,0.367,0.357,0.187,0.158,south,0.9,No
2016/09/25,23:20,0.378,0.231,0.401,0.368,0.361,0.189,0.160,west-northwest,0.8,No
2016/09/25,23:30,0.380,0.232,0.396,0.370,0.359,0.188,0.159,west-northwest,0.9,No
2016/09/25,23:40,0.377,0.230,0.401,0.366,0.358,0.189,0.160,west-northwest,1.4,No
2016/09/25,23:50,0.379,0.233,0.399,0.369,0.361,0.189,0.159,west-northwest,1.4,No
